Weather History for KBIH - January, 2013

Change the Weather History Date:

Thursday, January 24, 2013

  Actual Average Record
Temperature  
Mean Temperature 50 °F 39 °F  
Max Temperature 55 °F 55 °F 77 °F (1948)
Min Temperature 44 °F 24 °F 8 °F (1949)
Degree Days  
Heating Degree Days 15 26  
Month to date heating degree days 681 642  
Since 1 July heating degree days 2400 2389  
Cooling Degree Days 0 0  
Month to date cooling degree days 0 0  
Year to date cooling degree days 0 0  
Moisture  
Dew Point 39 °F    
Average Humidity 69    
Maximum Humidity 83    
Minimum Humidity 54    
Precipitation  
Precipitation T in 0.03 in 1.21 in (1969)
Month to date precipitation T 0.88  
Year to date precipitation T 0.88  
Snow  
Snow 0.00 in 0.10 in 12.50 in (1969)
Month to date snowfall T 3.3  
Since 1 July snowfall 2.8 5.0  
Snow Depth -    
Sea Level Pressure  
Sea Level Pressure 30.17 in    
Wind  
Wind Speed 6 mph (SSW)    
Max Wind Speed 28 mph    
Max Gust Speed 36 mph    
Visibility 10 miles    
Events Rain    
T = Trace of Precipitation, MM = Missing Value Source: NWS Daily Summary

Daily Weather History Graph

Daily Weather History Graph

Search for Another Location

Airport or City:

Trip Planner

Search our weather history database for the weather conditions in past years. The results will help you decide how hot, cold, wet, or windy it might be!

Date:

Astronomy

Jan. 24, 2013 Rise Set
Actual Time 7:02 AM PST 5:09 PM PST
Civil Twilight 6:34 AM PST 5:37 PM PST
Nautical Twilight 6:02 AM PST 6:09 PM PST
Astronomical Twilight 5:31 AM PST 6:39 PM PST
Moon 3:16 PM PST (1/24) 5:02 AM PST (1/24)
Length of Visible Light 11h 03m
Length of Day
10h 07m
Waxing Gibbous, 95% of the Moon is Illuminated
Jan 24
Waxing Gibbous
Jan 26
Full
Feb 3
Last Quarter
Feb 9
New
Feb 17
First Quarter

Hourly Weather History & Observations

Time (PST) Temp. Windchill Dew Point Humidity Pressure Visibility Wind Dir Wind Speed Gust Speed Precip Events Conditions
12:56 AM 50.0 °F - 36.0 °F 59% 30.07 in 10.0 mi SSE 19.6 mph 27.6 mph N/A   Scattered Clouds
6:56 AM 44.1 °F - 39.0 °F 82% 30.14 in 10.0 mi Calm Calm - N/A   Overcast
7:56 AM 45.0 °F 43.5 °F 39.0 °F 80% 30.14 in 10.0 mi WNW 3.5 mph - N/A   Overcast
8:56 AM 45.0 °F - 39.0 °F 80% 30.17 in 10.0 mi Calm Calm - N/A   Overcast
9:07 AM 46.4 °F 44.3 °F 39.2 °F 76% 30.22 in 10.0 mi WNW 4.6 mph - N/A   Overcast
9:29 AM 46.4 °F 45.2 °F 37.4 °F 71% 30.23 in 10.0 mi NW 3.5 mph - N/A   Overcast
9:56 AM 46.9 °F - 39.0 °F 74% 30.19 in 10.0 mi NNW 3.5 mph - N/A   Overcast
10:56 AM 50.0 °F - 39.9 °F 68% 30.17 in 10.0 mi North 3.5 mph - 0.00 in Rain Light Rain
11:56 AM 53.1 °F - 37.9 °F 57% 30.15 in 10.0 mi Calm Calm - 0.00 in   Clear
12:56 PM 52.0 °F - 37.0 °F 57% 30.13 in 10.0 mi Variable 4.6 mph - N/A   Mostly Cloudy
1:56 PM 53.1 °F - 37.9 °F 57% 30.12 in 10.0 mi Variable 3.5 mph - N/A   Clear
3:56 PM 54.0 °F - 39.0 °F 57% 30.12 in 10.0 mi Calm Calm - N/A   Mostly Cloudy
4:56 PM 52.0 °F - 39.0 °F 61% 30.14 in 10.0 mi South 4.6 mph - N/A   Overcast
5:56 PM 50.0 °F - 39.0 °F 66% 30.16 in 10.0 mi South 5.8 mph - N/A   Overcast
6:56 PM 50.0 °F - 39.9 °F 68% 30.18 in 10.0 mi South 9.2 mph - N/A   Overcast
7:56 PM 48.9 °F - 41.0 °F 74% 30.19 in 10.0 mi South 4.6 mph - N/A   Overcast
8:56 PM 48.0 °F - 41.0 °F 77% 30.20 in 10.0 mi South 4.6 mph - N/A   Overcast
9:56 PM 46.9 °F - 41.0 °F 80% 30.20 in 10.0 mi SE 4.6 mph - N/A   Overcast
10:56 PM 46.9 °F - 39.9 °F 77% 30.21 in 10.0 mi Calm Calm - N/A   Overcast
11:56 PM 46.9 °F - 41.0 °F 80% 30.20 in 10.0 mi Calm Calm - N/A   Overcast